This is the latest recevied weather packets stored in our database for station/object N8WEL. If no packets are shown the sender has not sent any weather packets the latest 10 day(s).
| Time | Temp. | Humidity | Pressure | Rain* | Wind** | Luminosity | Snow |
|---|---|---|---|---|---|---|---|
| 1777932731 | 22.78° C | 50% | 1004.7 hPa | 0 mm | - | - | - |
| 1777932731 | 22.78° C | 49% | 1004.6 hPa | 0 mm | - | - | - |
| 1777932076 | 22.78° C | 50% | 1004.7 hPa | 0 mm | - | - | - |
| 1777931776 | 22.22° C | 52% | 1004.8 hPa | 0 mm | - | - | - |
| 1777931476 | 22.22° C | 51% | 1004.8 hPa | 0 mm | - | - | - |
| 1777931177 | 22.22° C | 51% | 1004.6 hPa | 0 mm | - | - | - |
| 1777930876 | 22.22° C | 52% | 1004.6 hPa | 0 mm | - | - | - |
| 1777930576 | 22.22° C | 51% | 1004.6 hPa | 0 mm | - | - | - |
| 1777930276 | 22.22° C | 51% | 1004.6 hPa | 0 mm | - | - | - |
| 1777929976 | 22.22° C | 52% | 1004.6 hPa | 0 mm | - | - | - |
| 1777929676 | 21.67° C | 52% | 1004.4 hPa | 0 mm | - | - | - |
| 1777929376 | 21.67° C | 54% | 1004.4 hPa | 0 mm | - | - | - |
| 1777928476 | 22.22° C | 52% | 1005 hPa | 0 mm | - | - | - |
| 1777928176 | 22.22° C | 53% | 1005.2 hPa | 0 mm | - | - | - |
| 1777927876 | 22.22° C | 52% | 1005.3 hPa | 0 mm | - | - | - |
| 1777926976 | 21.11° C | 54% | 1005.4 hPa | 0 mm | - | - | - |
| 1777926676 | 21.11° C | 55% | 1005.2 hPa | 0 mm | - | - | - |
| 1777926376 | 21.11° C | 54% | 1005.4 hPa | 0 mm | - | - | - |
| 1777926076 | 21.11° C | 54% | 1005.4 hPa | 0 mm | - | - | - |
| 1777925476 | 21.11° C | 54% | 1005.4 hPa | 0 mm | - | - | - |
| 1777925064 | 21.67° C | 55% | 1005.6 hPa | 0 mm | - | - | - |
| 1777924780 | 21.67° C | 55% | 1005.7 hPa | 0 mm | - | - | - |
| 1777924457 | 21.11° C | 53% | 1005.7 hPa | 0 mm | - | - | - |
| 1777924157 | 21.67° C | 53% | 1005.8 hPa | 0 mm | - | - | - |
| 1777923418 | 21.67° C | 55% | 1006.2 hPa | 0 mm | - | - | - |
* Rain latest hour (hover to see other rain measurements)
** Current wind speed in m/s (hover to see current wind gust speed)